This is the latest recevied weather packets stored in our database for station/object KC3QLX. If no packets are shown the sender has not sent any weather packets the latest 10 day(s).
| Time | Temp. | Humidity | Pressure | Rain* | Wind** | Luminosity | Snow |
|---|---|---|---|---|---|---|---|
| 1777984439 | 13.33° C | 99% | 1010.6 hPa | 0 mm | - | 177 W/m² | - |
| 1777984135 | 13.33° C | 99% | 1010.4 hPa | 0 mm | - | 67 W/m² | - |
| 1777983832 | 12.78° C | 99% | 1010.5 hPa | 0 mm | - | 68 W/m² | - |
| 1777983529 | 12.78° C | 99% | 1010.3 hPa | 0 mm | - | 94 W/m² | - |
| 1777983226 | 12.78° C | 99% | 1010.4 hPa | 0 mm | - | 75 W/m² | - |
| 1777982922 | 13.33° C | 99% | 1010.4 hPa | 0 mm | - | 69 W/m² | - |
| 1777982618 | 13.33° C | 99% | 1010.5 hPa | 0 mm | - | 106 W/m² | - |
| 1777982317 | 12.22° C | 99% | 1010.4 hPa | 0 mm | - | 146 W/m² | - |
| 1777982014 | 11.67° C | 99% | 1010.6 hPa | 0 mm | - | 74 W/m² | - |
| 1777981712 | 11.67° C | 99% | 1010.4 hPa | 0 mm | - | 52 W/m² | - |
| 1777981409 | 11.67° C | 99% | 1010.4 hPa | 0 mm | - | 48 W/m² | - |
| 1777981105 | 11.11° C | 99% | 1010.4 hPa | 0 mm | - | 46 W/m² | - |
| 1777980801 | 10.56° C | 99% | 1010.5 hPa | 0 mm | - | 45 W/m² | - |
| 1777980497 | 10.56° C | 99% | 1010.6 hPa | 0 mm | - | 43 W/m² | - |
| 1777980195 | 10.56° C | 99% | 1010.4 hPa | 0 mm | - | 42 W/m² | - |
| 1777979890 | 10° C | 99% | 1010.4 hPa | 0 mm | - | 39 W/m² | - |
| 1777979586 | 10° C | 99% | 1010.3 hPa | 0 mm | - | 37 W/m² | - |
| 1777979276 | 10° C | 99% | 1010 hPa | 0 mm | - | 34 W/m² | - |
| 1777978975 | 9.44° C | 99% | 1010.1 hPa | 0 mm | - | 32 W/m² | - |
| 1777978671 | 9.44° C | 99% | 1010.2 hPa | 0 mm | - | 30 W/m² | - |
| 1777978366 | 9.44° C | 99% | 1009.7 hPa | 0 mm | - | 27 W/m² | - |
| 1777978063 | 10° C | 99% | 1009.9 hPa | 0 mm | - | 25 W/m² | - |
| 1777977761 | 10° C | 99% | 1010.1 hPa | 0 mm | - | 23 W/m² | - |
| 1777977457 | 9.44° C | 99% | 1009.9 hPa | 0 mm | - | 20 W/m² | - |
| 1777977155 | 10° C | 99% | 1009.7 hPa | 0 mm | - | 17 W/m² | - |
* Rain latest hour (hover to see other rain measurements)
** Current wind speed in m/s (hover to see current wind gust speed)